SCP
0 0 0 0 0 0 0 0 0 0 0 0 0 0 0 0 0 0 0 0 0 0 0 0 0 0 0 0 0 0 0 0 0 0 0 0 0 0 0 0 0 0 0
0 0 0 0 0 0 0 0 0 0 0 0 0 0 0 0 0 0 0 0 0 0 0 0 0 0 0 0 0 0 0 0 0 0 0 0 0 0 0 0 0 0 0
0 0 0 0 0 0 0 0 0 0 0 0 0 0 0 0 0 0 0 0 0 0 0 0 0 0 0 0 0 0 0 0 0 0 0 0 0 0 0 0 0 0 0
0 0 0 0 0 0 0 0 0 0 0 0 0 0 0 0 0 0 0 0 0 0 0 0 0 0 0 0 0 0 0 0 0 0 0 0 0 0 0 0 0 0 0
0 0 0 0 0 0 0 0 0 0 0 0 0 0 0 0 0 0 0 0 0 0 0 0 0 0 0 0 0 0 0 0 0 0 0 0 0 0 0 0 0 0 0
0 0 0 0 0 0 0 0 0 0 0 0 0 0 0 0 0 0 0 0 0 0 0 0 0 0 0 0 0 0 0 0 0 0 0 0 0 0 0 0 0 0 0
0 0 0 0 0 0 0 0 0 0 0 0 0 0 0 0 0 0 0 0 0 0 0 0 0 0 0 0 0 0 0 0 0 0 0 0 0 0 0 0 0 0 0
0 0 0 0 0 0 0 0 0 0 0 0 0 0 0 0 0 0 0 0 0 0 0 0 0 0 0 0 0 0 0 0 0 0 0 0 0 0 0 0 0 0 0
0 0 0 0 0 0 0 0 0 0 0 0 0 0 0 0 0 0 0 0 0 0 0 0 0 0 0 0 0 0 0 0 0 0 0 0 0 0 0 0 0 0 0
0 0 0 0 0 0 0 0 0 0 0 0 0 0 0 0 0 0 0 0 0 0 0 0 0 0 0 0 0 0 0 0 0 0 0 0 0 0 0 0 0 0 0
0 0 0 0 0 0 0 0 0 0 0 0 0 0 0 0 0 0 0 0 0 0 0 0 0 0 0 0 0 0 0 0 0 0 0 0 0 0 0 0 0 0 0
0 0 0 0 0 0 0 0 0 0 0 0 0 0 0 0 0 0 0 0 0 0 0 0 0 0 0 0 0 0 0 0 0 0 0 0 0 0 0 0 0 0 0
0 0 0 0 0 0 0 0 0 0 0 0 0 0 0 0 0 0 0 0 0 0 0 0 0 0 0 0 0 0 0 0 0 0 0 0 0 0 0 0 0 0 0
0 0 0 0 0 0 0 0 0 0 0 0 0 0 0 0 0 0 0 0 0 0 0 0 0 0 0 0 0 0 0 0 0 0 0 0 0 0 0 0 0 0 0
0 0 0 0 0 0 0 0 0 0 0 0 0 0 0 0 0 0 0 0 0 0 0 0 0 0 0 0 0 0 0 0 0 0 0 0 0 0 0 0 0 0 0
0 0 0 0 0 0 0 0 0 0 0 0 0 0 0 0 0 0 0 0 0 0 0 0 0 0 0 0 0 0 0 0 0 0 0 0 0 0 0 0 0 0 0
0 0 0 0 0 0 0 0 0 0 0 0 0 0 0 0 0 0 0 0 0 0 0 0 0 0 0 0 0 0 0 0 0 0 0 0 0 0 0 0 0 0 0
0 0 0 0 0 0 0 0 0 0 0 0 0 0 0 0 0 0 0 0 0 0 0 0 0 0 0 0 0 0 0 0 0 0 0 0 0 0 0 0 0 0 0
0 0 0 0 0 -0 0 0 0 0 0 0 0 0 0 0 0 0 0 0 0 0 0 0 0 0 0 0 0 0 0 0 0 0 0 0 0 0 0 0 0 0 0
0 0 0 -0 0 0 0 0 0 0 0 0 0 0 0 0 0 0 0 0 0 0 0 0 0 0 0 0 0 0 0 0 0 0 0 0 0 0 0 0 0 0 0
-0 0 0 0 0 -0 -0 0 0 0 0 0 0 0 0 0 0 0 0 0 0 0 0 0 0 0 0 0 0 0 0 0 0 0 0 0 0 0 0 0 0 0 0
-0 -0 -0 0 0 0 0 -0 -0 -0 0 0 0 0 0 0 0 0 0 0 0 0 0 0 0 0 0 0 0 0 0 0 0 0 0 0 0 0 0 0 0 0 0
-0 -0 -0 0 0 0 0 0 0 -0 -0 0 0 0 0 0 0 0 0 0 0 0 0 0 0 0 0 0 0 0 0 0 0 0 0 0 0 0 0 0 0 0 0
0 0 -0 0 0 0 0 0 0 0 0 0 0 0 0 0 0 0 0 0 0 0 0 0 0 0 0 0 0 0 0 0 0 0 0 0 0 0 0 0 0 0 0
0 0 0 0 0 0 0 0 0 0 0 0 0 0 0 0 0 0 0 0 0 0 0 0 0 0 0 0 0 0 0 0 0 0 0 0 0 0 0 0 0 0 0
0 0 0 0 0 0 0 0 0 0 0 0 0 0 0 0 0 0 0 0 0 0 0 0 0 0 0 0 0 0 0 0 0 0 0 0 0 0 0 0 0 0 0
Wind_Speed_500mb
62 58 57 55 53 49 48 43 39 34 30 26 21 18 15 13 13 16 17 17 18 19 18 17 16 15 15 9 2 13 9 23 27 23 21 18 20 20 20 21 28 31 30
68 67 64 62 58 54 52 49 44 40 36 31 26 21 17 15 14 15 17 17 18 18 21 17 13 11 2 14 16 16 8 21 21 18 21 15 14 14 15 14 14 14 18
75 72 70 68 63 60 57 54 50 46 41 36 31 25 21 17 16 17 18 19 18 18 17 19 9 12 20 11 19 8 16 24 16 16 16 7 7 8 10 12 9 9 12
81 79 76 75 70 67 63 60 55 51 47 41 35 30 26 22 19 18 19 20 20 18 18 17 21 29 28 23 13 21 18 12 13 10 6 8 12 11 10 9 9 10 11
84 85 83 78 76 73 70 67 63 57 52 46 41 36 31 26 22 21 21 22 21 22 21 19 21 21 20 19 23 28 18 19 17 16 18 18 15 14 13 13 11 13 12
85 86 85 83 81 77 75 73 69 64 60 53 48 42 35 29 24 24 24 24 23 23 23 24 25 23 24 23 23 19 18 14 24 25 21 18 16 16 17 18 18 17 17
84 85 90 89 88 82 78 76 74 69 63 60 50 40 35 33 31 30 29 29 28 28 26 27 28 27 27 26 20 15 16 20 25 22 20 19 17 16 16 18 19 20 20
87 87 91 93 92 86 83 82 79 76 70 69 60 42 25 33 36 35 35 33 30 30 29 29 28 30 24 33 38 42 37 28 22 17 14 14 14 15 17 19 20 21 22
76 83 86 94 95 93 91 88 87 86 83 77 68 35 18 20 31 38 39 36 34 34 32 30 29 29 36 39 38 38 31 26 22 18 18 18 19 20 21 22 22 22 21
66 78 83 88 97 97 96 94 91 91 88 87 78 75 52 27 22 19 36 41 41 41 39 37 36 36 41 41 36 31 26 22 19 18 18 18 19 20 21 21 20 19 19
48 58 79 83 97 102 101 101 98 98 96 91 88 84 79 56 37 22 27 43 50 51 49 48 44 41 42 41 41 35 29 25 22 20 18 17 18 19 19 20 20 20 20
41 42 57 74 89 100 103 102 100 99 98 97 94 90 89 86 78 56 34 35 41 46 52 52 51 48 48 46 43 39 33 27 25 23 21 19 19 19 20 21 22 22 22
36 38 42 53 69 92 99 101 102 101 100 101 100 97 95 91 82 72 57 46 37 43 50 56 58 56 53 51 47 44 36 30 27 23 19 19 21 22 23 23 23 22 21
33 39 40 44 48 61 86 96 101 103 102 100 101 103 102 100 91 84 73 68 39 45 51 53 61 62 59 54 48 48 40 35 32 27 22 22 23 24 23 23 22 22 22
34 34 38 41 43 47 58 78 93 101 103 102 103 105 108 104 98 92 83 80 73 55 58 59 60 66 64 60 54 51 44 39 34 28 23 23 23 23 22 22 22 22 21
32 35 32 36 43 43 49 58 74 89 98 103 104 107 109 108 107 98 91 88 80 73 59 66 64 62 63 63 61 58 50 42 37 30 26 25 25 24 23 23 23 23 22
45 40 35 33 36 43 49 56 62 71 85 98 105 108 110 109 113 109 100 94 88 80 72 64 61 60 63 66 68 65 56 48 41 34 30 29 31 30 28 28 26 24 23
44 42 43 44 40 39 43 53 62 64 73 83 96 105 109 110 116 113 109 104 97 87 82 78 70 66 66 66 68 69 62 55 48 42 36 33 34 33 33 32 27 28 28
53 53 49 45 41 45 47 48 56 61 70 76 82 95 106 108 117 116 115 113 106 98 91 90 81 74 69 70 73 76 71 64 58 50 41 38 37 35 36 34 33 33 30
55 52 55 61 58 50 47 51 53 58 65 75 80 85 94 105 116 116 119 118 114 108 102 99 90 84 78 75 76 80 79 73 65 55 48 43 40 38 36 35 36 33 29
65 62 61 56 56 61 64 61 53 52 60 70 78 86 91 97 104 113 119 122 123 118 117 110 103 94 88 84 87 86 80 74 70 62 53 48 43 41 37 38 37 35 31
83 77 72 70 66 64 61 59 62 66 59 63 77 84 90 95 99 104 119 121 125 125 128 125 120 116 107 97 89 84 80 80 73 65 57 52 48 45 41 40 39 38 35
98 95 91 86 82 78 71 67 64 63 71 73 75 79 88 96 96 101 107 117 124 127 127 128 131 131 119 108 96 88 86 81 81 68 57 55 51 48 46 43 42 41 39
97 103 106 103 101 96 86 78 72 72 74 77 82 83 86 92 95 98 103 105 117 126 128 129 132 125 125 113 101 93 88 83 77 71 65 57 54 52 51 46 42 42 41
107 106 109 115 117 114 106 97 88 83 85 85 82 84 85 91 95 93 97 101 105 122 125 125 129 126 122 111 96 90 93 86 82 76 70 60 53 54 53 46 43 46 46
123 123 124 121 122 127 118 113 104 96 94 93 92 89 86 89 94 88 100 99 108 113 115 114 116 117 122 118 105 100 93 96 90 73 69 56 53 53 42 44 40 44 44
Wind_Direction_500mb
230 228 227 225 222 219 218 217 218 220 222 225 230 238 249 261 267 270 274 270 268 264 258 260 271 277 282 306 7 143 213 266 277 288 281 265 265 265 260 254 248 253 259
233 230 229 227 225 223 221 219 220 221 221 224 228 235 244 255 265 271 274 270 263 259 252 248 244 262 192 183 175 191 226 264 285 284 282 290 284 274 268 260 259 257 257
234 233 231 228 228 226 223 220 220 221 223 224 227 231 239 249 259 265 266 264 259 257 256 248 182 143 186 192 224 230 195 269 292 273 301 317 268 264 263 261 262 257 251
235 234 233 231 229 229 227 225 224 222 223 223 227 232 239 247 259 266 265 259 258 247 232 225 224 207 207 201 161 181 222 260 248 262 252 221 213 218 233 242 231 225 226
236 235 235 233 231 230 228 226 224 223 223 222 226 232 237 244 252 260 262 256 250 243 239 227 224 228 227 185 189 202 242 257 262 249 235 232 231 233 242 252 264 264 259
238 235 235 235 235 232 228 226 226 224 223 223 225 228 234 242 248 256 259 256 248 239 235 229 227 223 219 214 213 221 243 250 244 248 252 262 264 265 264 267 270 277 280
243 237 236 235 235 235 233 230 227 223 219 220 218 220 228 235 239 246 250 247 242 240 236 232 231 231 229 227 216 183 183 233 258 262 264 265 269 271 275 278 282 284 284
244 240 237 237 238 236 233 232 229 225 221 224 218 222 219 232 233 237 239 234 232 231 230 231 232 229 215 219 215 213 229 251 256 251 250 252 260 267 270 271 272 274 276
244 245 240 239 240 238 237 236 233 230 227 225 217 215 199 218 223 232 229 227 223 224 228 231 233 230 217 230 230 238 243 240 243 246 249 252 253 256 260 264 267 270 274
247 250 249 242 241 240 239 238 237 236 232 232 222 220 222 201 187 194 224 225 223 227 232 234 239 235 232 234 238 232 229 233 239 244 247 254 260 264 267 270 272 276 279
265 251 253 245 242 242 240 240 238 236 235 236 235 230 226 224 213 204 204 220 225 230 234 238 238 237 235 232 231 226 225 234 239 241 246 249 251 252 253 255 255 257 258
272 267 258 255 245 243 243 243 242 239 237 236 239 238 237 230 227 220 219 222 227 230 233 233 235 235 234 231 229 223 227 230 230 233 237 244 250 256 261 264 267 269 273
280 278 272 265 255 247 246 245 245 243 240 237 237 239 240 240 242 242 231 222 208 223 225 229 230 234 235 233 226 224 225 228 229 233 241 251 259 265 271 276 282 284 284
282 288 283 277 270 259 250 248 247 247 245 242 240 240 241 241 240 242 239 234 210 220 223 228 229 230 232 231 228 221 224 225 228 231 240 257 267 271 275 280 285 285 284
295 285 283 283 277 269 260 252 250 249 248 245 243 242 242 244 241 239 239 243 239 228 225 227 229 232 230 228 224 221 224 226 228 234 243 258 270 279 286 288 286 286 285
323 307 298 288 283 277 269 263 256 253 252 251 247 245 244 243 242 239 238 241 241 240 237 233 236 235 231 227 222 221 226 228 229 236 246 258 266 270 270 269 269 268 269
350 340 319 303 290 284 277 271 267 262 257 254 252 249 248 246 245 242 238 238 239 237 237 230 232 234 230 228 225 221 226 228 231 237 245 256 263 265 265 266 267 266 269
338 340 341 333 317 301 286 277 276 271 264 259 255 253 250 247 246 244 241 238 237 236 236 237 233 228 228 228 225 222 226 227 230 235 242 252 260 267 268 269 266 262 264
328 326 325 327 328 324 309 294 283 275 273 268 262 258 255 251 250 247 244 240 238 237 236 240 238 233 227 223 222 221 226 228 229 232 236 245 253 256 260 263 261 262 264
325 323 321 318 314 307 309 308 294 285 277 270 266 262 260 255 253 251 248 245 240 236 236 236 236 237 231 225 223 224 227 230 231 232 233 239 246 250 254 260 259 256 256
318 317 316 315 315 312 305 295 291 295 286 277 270 265 261 260 257 255 251 247 243 237 235 234 234 231 230 227 226 227 229 232 234 233 234 236 244 247 250 253 250 250 254
313 312 311 311 310 309 311 311 302 292 281 279 275 269 263 261 258 257 256 253 249 243 237 235 234 236 234 234 233 231 226 224 230 230 234 238 241 244 248 248 243 245 245
305 306 305 306 305 304 305 306 308 298 289 281 275 271 267 263 260 257 256 254 251 249 245 244 240 239 237 236 236 232 229 229 232 234 231 235 237 241 245 246 243 246 246
294 296 298 299 298 297 299 299 299 299 292 284 279 272 268 265 261 257 253 250 249 248 245 243 242 244 245 243 239 241 238 228 225 228 227 228 237 242 246 245 245 247 244
290 288 288 290 292 292 294 294 296 294 291 288 281 278 270 266 261 252 251 248 249 248 246 242 242 242 243 244 239 234 228 222 220 226 231 231 237 245 249 248 249 251 236
291 288 284 282 282 285 286 287 289 289 286 286 286 280 276 268 260 245 245 246 242 244 240 235 234 234 237 237 235 235 234 226 222 220 227 234 239 241 250 252 250 242 230
Wind_Speed_850mb
62 58 57 55 53 49 48 43 39 34 30 26 21 18 15 13 13 16 17 17 18 19 18 17 16 15 15 9 2 13 9 23 27 23 21 18 20 20 20 21 28 31 30
68 67 64 62 58 54 52 49 44 40 36 31 26 21 17 15 14 15 17 17 18 18 21 17 13 11 2 14 16 16 8 21 21 18 21 15 14 14 15 14 14 14 18
75 72 70 68 63 60 57 54 50 46 41 36 31 25 21 17 16 17 18 19 18 18 17 19 9 12 20 11 19 8 16 24 16 16 16 7 7 8 10 12 9 9 12
81 79 76 75 70 67 63 60 55 51 47 41 35 30 26 22 19 18 19 20 20 18 18 17 21 29 28 23 13 21 18 12 13 10 6 8 12 11 10 9 9 10 11
84 85 83 78 76 73 70 67 63 57 52 46 41 36 31 26 22 21 21 22 21 22 21 19 21 21 20 19 23 28 18 19 17 16 18 18 15 14 13 13 11 13 12
85 86 85 83 81 77 75 73 69 64 60 53 48 42 35 29 24 24 24 24 23 23 23 24 25 23 24 23 23 19 18 14 24 25 21 18 16 16 17 18 18 17 17
84 85 90 89 88 82 78 76 74 69 63 60 50 40 35 33 31 30 29 29 28 28 26 27 28 27 27 26 20 15 16 20 25 22 20 19 17 16 16 18 19 20 20
87 87 91 93 92 86 83 82 79 76 70 69 60 42 25 33 36 35 35 33 30 30 29 29 28 30 24 33 38 42 37 28 22 17 14 14 14 15 17 19 20 21 22
76 83 86 94 95 93 91 88 87 86 83 77 68 35 18 20 31 38 39 36 34 34 32 30 29 29 36 39 38 38 31 26 22 18 18 18 19 20 21 22 22 22 21
66 78 83 88 97 97 96 94 91 91 88 87 78 75 52 27 22 19 36 41 41 41 39 37 36 36 41 41 36 31 26 22 19 18 18 18 19 20 21 21 20 19 19
48 58 79 83 97 102 101 101 98 98 96 91 88 84 79 56 37 22 27 43 50 51 49 48 44 41 42 41 41 35 29 25 22 20 18 17 18 19 19 20 20 20 20
41 42 57 74 89 100 103 102 100 99 98 97 94 90 89 86 78 56 34 35 41 46 52 52 51 48 48 46 43 39 33 27 25 23 21 19 19 19 20 21 22 22 22
36 38 42 53 69 92 99 101 102 101 100 101 100 97 95 91 82 72 57 46 37 43 50 56 58 56 53 51 47 44 36 30 27 23 19 19 21 22 23 23 23 22 21
33 39 40 44 48 61 86 96 101 103 102 100 101 103 102 100 91 84 73 68 39 45 51 53 61 62 59 54 48 48 40 35 32 27 22 22 23 24 23 23 22 22 22
34 34 38 41 43 47 58 78 93 101 103 102 103 105 108 104 98 92 83 80 73 55 58 59 60 66 64 60 54 51 44 39 34 28 23 23 23 23 22 22 22 22 21
32 35 32 36 43 43 49 58 74 89 98 103 104 107 109 108 107 98 91 88 80 73 59 66 64 62 63 63 61 58 50 42 37 30 26 25 25 24 23 23 23 23 22
45 40 35 33 36 43 49 56 62 71 85 98 105 108 110 109 113 109 100 94 88 80 72 64 61 60 63 66 68 65 56 48 41 34 30 29 31 30 28 28 26 24 23
44 42 43 44 40 39 43 53 62 64 73 83 96 105 109 110 116 113 109 104 97 87 82 78 70 66 66 66 68 69 62 55 48 42 36 33 34 33 33 32 27 28 28
53 53 49 45 41 45 47 48 56 61 70 76 82 95 106 108 117 116 115 113 106 98 91 90 81 74 69 70 73 76 71 64 58 50 41 38 37 35 36 34 33 33 30
55 52 55 61 58 50 47 51 53 58 65 75 80 85 94 105 116 116 119 118 114 108 102 99 90 84 78 75 76 80 79 73 65 55 48 43 40 38 36 35 36 33 29
65 62 61 56 56 61 64 61 53 52 60 70 78 86 91 97 104 113 119 122 123 118 117 110 103 94 88 84 87 86 80 74 70 62 53 48 43 41 37 38 37 35 31
83 77 72 70 66 64 61 59 62 66 59 63 77 84 90 95 99 104 119 121 125 125 128 125 120 116 107 97 89 84 80 80 73 65 57 52 48 45 41 40 39 38 35
98 95 91 86 82 78 71 67 64 63 71 73 75 79 88 96 96 101 107 117 124 127 127 128 131 131 119 108 96 88 86 81 81 68 57 55 51 48 46 43 42 41 39
97 103 106 103 101 96 86 78 72 72 74 77 82 83 86 92 95 98 103 105 117 126 128 129 132 125 125 113 101 93 88 83 77 71 65 57 54 52 51 46 42 42 41
107 106 109 115 117 114 106 97 88 83 85 85 82 84 85 91 95 93 97 101 105 122 125 125 129 126 122 111 96 90 93 86 82 76 70 60 53 54 53 46 43 46 46
123 123 124 121 122 127 118 113 104 96 94 93 92 89 86 89 94 88 100 99 108 113 115 114 116 117 122 118 105 100 93 96 90 73 69 56 53 53 42 44 40 44 44
Wind_Direction_850mb
230 228 227 225 222 219 218 217 218 220 222 225 230 238 249 261 267 270 274 270 268 264 258 260 271 277 282 306 7 143 213 266 277 288 281 265 265 265 260 254 248 253 259
233 230 229 227 225 223 221 219 220 221 221 224 228 235 244 255 265 271 274 270 263 259 252 248 244 262 192 183 175 191 226 264 285 284 282 290 284 274 268 260 259 257 257
234 233 231 228 228 226 223 220 220 221 223 224 227 231 239 249 259 265 266 264 259 257 256 248 182 143 186 192 224 230 195 269 292 273 301 317 268 264 263 261 262 257 251
235 234 233 231 229 229 227 225 224 222 223 223 227 232 239 247 259 266 265 259 258 247 232 225 224 207 207 201 161 181 222 260 248 262 252 221 213 218 233 242 231 225 226
236 235 235 233 231 230 228 226 224 223 223 222 226 232 237 244 252 260 262 256 250 243 239 227 224 228 227 185 189 202 242 257 262 249 235 232 231 233 242 252 264 264 259
238 235 235 235 235 232 228 226 226 224 223 223 225 228 234 242 248 256 259 256 248 239 235 229 227 223 219 214 213 221 243 250 244 248 252 262 264 265 264 267 270 277 280
243 237 236 235 235 235 233 230 227 223 219 220 218 220 228 235 239 246 250 247 242 240 236 232 231 231 229 227 216 183 183 233 258 262 264 265 269 271 275 278 282 284 284
244 240 237 237 238 236 233 232 229 225 221 224 218 222 219 232 233 237 239 234 232 231 230 231 232 229 215 219 215 213 229 251 256 251 250 252 260 267 270 271 272 274 276
244 245 240 239 240 238 237 236 233 230 227 225 217 215 199 218 223 232 229 227 223 224 228 231 233 230 217 230 230 238 243 240 243 246 249 252 253 256 260 264 267 270 274
247 250 249 242 241 240 239 238 237 236 232 232 222 220 222 201 187 194 224 225 223 227 232 234 239 235 232 234 238 232 229 233 239 244 247 254 260 264 267 270 272 276 279
265 251 253 245 242 242 240 240 238 236 235 236 235 230 226 224 213 204 204 220 225 230 234 238 238 237 235 232 231 226 225 234 239 241 246 249 251 252 253 255 255 257 258
272 267 258 255 245 243 243 243 242 239 237 236 239 238 237 230 227 220 219 222 227 230 233 233 235 235 234 231 229 223 227 230 230 233 237 244 250 256 261 264 267 269 273
280 278 272 265 255 247 246 245 245 243 240 237 237 239 240 240 242 242 231 222 208 223 225 229 230 234 235 233 226 224 225 228 229 233 241 251 259 265 271 276 282 284 284
282 288 283 277 270 259 250 248 247 247 245 242 240 240 241 241 240 242 239 234 210 220 223 228 229 230 232 231 228 221 224 225 228 231 240 257 267 271 275 280 285 285 284
295 285 283 283 277 269 260 252 250 249 248 245 243 242 242 244 241 239 239 243 239 228 225 227 229 232 230 228 224 221 224 226 228 234 243 258 270 279 286 288 286 286 285
323 307 298 288 283 277 269 263 256 253 252 251 247 245 244 243 242 239 238 241 241 240 237 233 236 235 231 227 222 221 226 228 229 236 246 258 266 270 270 269 269 268 269
350 340 319 303 290 284 277 271 267 262 257 254 252 249 248 246 245 242 238 238 239 237 237 230 232 234 230 228 225 221 226 228 231 237 245 256 263 265 265 266 267 266 269
338 340 341 333 317 301 286 277 276 271 264 259 255 253 250 247 246 244 241 238 237 236 236 237 233 228 228 228 225 222 226 227 230 235 242 252 260 267 268 269 266 262 264
328 326 325 327 328 324 309 294 283 275 273 268 262 258 255 251 250 247 244 240 238 237 236 240 238 233 227 223 222 221 226 228 229 232 236 245 253 256 260 263 261 262 264
325 323 321 318 314 307 309 308 294 285 277 270 266 262 260 255 253 251 248 245 240 236 236 236 236 237 231 225 223 224 227 230 231 232 233 239 246 250 254 260 259 256 256
318 317 316 315 315 312 305 295 291 295 286 277 270 265 261 260 257 255 251 247 243 237 235 234 234 231 230 227 226 227 229 232 234 233 234 236 244 247 250 253 250 250 254
313 312 311 311 310 309 311 311 302 292 281 279 275 269 263 261 258 257 256 253 249 243 237 235 234 236 234 234 233 231 226 224 230 230 234 238 241 244 248 248 243 245 245
305 306 305 306 305 304 305 306 308 298 289 281 275 271 267 263 260 257 256 254 251 249 245 244 240 239 237 236 236 232 229 229 232 234 231 235 237 241 245 246 243 246 246
294 296 298 299 298 297 299 299 299 299 292 284 279 272 268 265 261 257 253 250 249 248 245 243 242 244 245 243 239 241 238 228 225 228 227 228 237 242 246 245 245 247 244
290 288 288 290 292 292 294 294 296 294 291 288 281 278 270 266 261 252 251 248 249 248 246 242 242 242 243 244 239 234 228 222 220 226 231 231 237 245 249 248 249 251 236
291 288 284 282 282 285 286 287 289 289 286 286 286 280 276 268 260 245 245 246 242 244 240 235 234 234 237 237 235 235 234 226 222 220 227 234 239 241 250 252 250 242 230